Weather in Winterthur

Switzerland     47°30′12″N   8°43′19″E
В апреле 2022 года жителям России запретили посещать сайт meteo.paraplan.net по решению Генеральной прокуратуры. Аудитория сайта уменьшилась в 10 раз. Владельцы сайта не видят смысла в поддержке погодного сервера в таких условиях. Сайт будет закрыт в октябре.
temp.,
°C
wind,
m/s
gust,
m/s
humid.,
%
clouds,
%
prec.,
mm/h
press.,
hPa
HPBL,
m
25 september, sun
sun2523:00+9sse11975 0.1 101410
02:00+8se119599 0.0 101410
05:00+7ese009693 0.0 101310
08:00+9nne0096100 0.0 101322
11:00+10sw1197100 0.2 101484
14:00+12sw3589100 0.3 1013572
17:00+11ssw1495100 1.4 1013229
20:00+9s229757 1.5 101430
26 september, mon
mon2623:00+8ssw1196100 0.1 101514
02:00+7ssw119713 0.3 101410
05:00+7w119889 0.0 101311
08:00+8ssw1297100 0.1 101257
11:00+11sw268890 0.1 1011480
14:00+13sw4663100 0.2 10091245
17:00+14sw4963100 0.3 10061231
20:00+10sw2479100 0.5 1007102
27 september, tue
tue2723:00+9sw3992100 0.9 1006460
02:00+9wsw51396100 5.3 10041207
05:00+8wsw61395100 7.1 10071157
08:00+7w31093100 7.5 10081039
11:00+9wsw498888 0.9 10081183
14:00+11w4107395 2.0 10071599
17:00+11wsw497274 0.6 10061239
20:00+7sw268730 1.1 1007139
28 september, wed
wed2823:00+9sw5147046 0.0 1006992
02:00+8ssw41281100 0.1 1005697
05:00+7s3993100 1.0 1002348
08:00+7wsw1198100 4.9 100157
11:00+8s2899100 7.8 1001446
14:00+9ssw41197100 15.1 1001801
17:00+9wsw1698100 7.9 1002499
20:00+8ssw1298100 11.6 100395
29 september, thu
thu2923:00+7ssw2597100 4.9 1005281
02:00+6s3895100 5.8 1006343
05:00+6s1396100 0.1 1006122
08:00+7se1195100 0.5 100622
11:00+8s1294100 0.1 1007129
14:00+11ssw2374100 0.1 1006916
17:00+11sw2377100 0.1 1007627
20:00+8ssw1296100 1.1 101081